This is the latest recevied weather packets stored in our database for station/object OZ1IEP-5. If no packets are shown the sender has not sent any weather packets the latest 10 day(s).
| Time | Temp. | Humidity | Pressure | Rain* | Wind** | Luminosity | Snow |
|---|---|---|---|---|---|---|---|
| 1777905606 | 14.44° C | 64% | 1009.8 hPa | 0 mm | - | 550 W/m² | - |
| 1777905008 | 14.44° C | 66% | 1009.8 hPa | 0 mm | - | 582 W/m² | - |
| 1777904406 | 14.44° C | 66% | 1009.9 hPa | 0 mm | - | 415 W/m² | - |
| 1777903806 | 14.44° C | 65% | 1009.9 hPa | 0 mm | - | 334 W/m² | - |
| 1777903208 | 14.44° C | 68% | 1009.9 hPa | 0 mm | - | 670 W/m² | - |
| 1777902606 | 15° C | 65% | 1009.8 hPa | 0 mm | - | 626 W/m² | - |
| 1777902005 | 15° C | 65% | 1009.8 hPa | 0 mm | - | 694 W/m² | - |
| 1777901409 | 14.44° C | 63% | 1009.8 hPa | 0 mm | - | 698 W/m² | - |
| 1777900805 | 14.44° C | 66% | 1009.8 hPa | 0 mm | - | 714 W/m² | - |
| 1777900205 | 14.44° C | 66% | 1009.8 hPa | 0 mm | - | 719 W/m² | - |
| 1777899608 | 13.89° C | 66% | 1009.8 hPa | 0 mm | - | 726 W/m² | - |
| 1777899006 | 14.44° C | 67% | 1009.6 hPa | 0 mm | - | 738 W/m² | - |
| 1777898406 | 13.89° C | 65% | 1009.4 hPa | 0 mm | - | 747 W/m² | - |
| 1777897809 | 13.89° C | 67% | 1009.4 hPa | 0 mm | - | 761 W/m² | - |
| 1777897206 | 13.89° C | 67% | 1009.4 hPa | 0 mm | - | 786 W/m² | - |
| 1777896605 | 13.89° C | 68% | 1009.4 hPa | 0 mm | - | 773 W/m² | - |
| 1777896008 | 13.89° C | 67% | 1009.3 hPa | 0 mm | - | 779 W/m² | - |
| 1777895406 | 13.89° C | 70% | 1009.3 hPa | 0 mm | - | 786 W/m² | - |
| 1777894806 | 13.89° C | 69% | 1009.3 hPa | 0 mm | - | 786 W/m² | - |
| 1777894208 | 13.33° C | 68% | 1009.2 hPa | 0 mm | - | 793 W/m² | - |
| 1777893606 | 13.33° C | 69% | 1009.2 hPa | 0 mm | - | 795 W/m² | - |
| 1777893006 | 13.89° C | 71% | 1009.1 hPa | 0 mm | - | 795 W/m² | - |
| 1777892408 | 13.33° C | 69% | 1008.9 hPa | 0 mm | - | 798 W/m² | - |
| 1777891806 | 13.33° C | 72% | 1008.9 hPa | 0 mm | - | 793 W/m² | - |
| 1777891205 | 13.33° C | 72% | 1008.8 hPa | 0 mm | - | 793 W/m² | - |
* Rain latest hour (hover to see other rain measurements)
** Current wind speed in m/s (hover to see current wind gust speed)